Regional Weather Roundup
Issued by NWS

Home | Current Version | Previous Version | Graphics & Text | Print | Product List | Glossary On
Versions: 1 2 3 4 5 6 7 8 9 10 11 12 13 14 15 16 17 18 19 20 21 22 23 24 25 26 27 28 29 30 31 32 33 34 35 36 37 38 39 40 41 42 43 44 45 46 47 48 49 50
000
ASUS43 KMPX 010001
RWRMN
WEATHER ROUNDUP FOR MINNESOTA
NATIONAL WEATHER SERVICE TWIN CITIES/CHANHASSEN MN
600 PM CST SAT FEB 28 2015


NOTE: "FAIR" INDICATES FEW OR NO CLOUDS BELOW 12,000 FEET WITH NO
SIGNIFICANT WEATHER AND/OR OBSTRUCTIONS TO VISIBILITY. N/A MEANS
CURRENT SKY AND/OR WEATHER CONDITIONS ARE NOT AVAILABLE.

MNZ060>063-068>070-010100-
   Twin Cities Metro

CITY           SKY/WX    TMP DP  RH WIND       PRES   REMARKS
TWIN CITIES    MOCLDY    14   3  61 S14       30.37F WCI  -1
6HR MIN TEMP:  14; 6HR MAX TEMP:  20;

ST PAUL        MOCLDY    14   3  61 S17       30.39F WCI  -3
CRYSTAL        MOCLDY    16   4  59 S15       30.35R WCI   1
BLAINE         MOCLDY    18   7  62 S15G21    30.35S WCI   3
LAKEVILLE      PTCLDY    10   3  72 S9        30.36S WCI  -2
EDEN PRAIRIE   PTCLDY    14   3  61 S12       30.36R WCI   0
6HR MIN TEMP:  14; 6HR MAX TEMP:  22;

SOUTH ST PAUL  CLOUDY    15   4  60 S10G16    30.37F WCI   3
LAKE ELMO      CLOUDY    16   5  62 S16       30.37F WCI   0
$$
MNZ001>005-007-008-013>017-022>024-027-028-010100-
   Northwest Minnesota

CITY           SKY/WX    TMP DP  RH WIND       PRES   REMARKS
BEMIDJI        FLURRIES  19  12  72 S14       30.12F WCI   6
HALLOCK        CLOUDY    19  14  79 SW10      30.08S WCI   8
ROSEAU         LGT SNOW  21  18  86 S9        30.06F WCI  11
WARROAD        LGT SNOW  21  18  86 S7        30.07F WCI  13
THIEF RVR FALL CLOUDY    21  19  93 SW12      30.09S VSB 1   WCI   9
CROOKSTON      CLOUDY    21  18  86 SW15      30.12S WCI   8
FOSSTON        LGT SNOW  18  16  93 S17       30.11S WCI   2
DETROIT LAKES  LGT SNOW  21  18  86 S12       30.15S WCI   9
MOORHEAD       RAIN      25  21  86 S10G16    30.16S WCI  15
PARK RAPIDS    CLOUDY    19  12  74 S15       30.15F HAZE    WCI   5
MAHNOMEN       CLOUDY    20  15  80 S18G26    30.13S WCI   5
$$
MNZ006-009>011-018-025>026-010100-
   North Central Minnesota

CITY           SKY/WX    TMP DP  RH WIND       PRES   REMARKS
BAUDETTE       CLOUDY    22  10  60 S16       30.07F WCI   8
FLAG ISLAND    LGT SNOW  19  18  93 SW14      30.06S VSB 3/4 WCI   6
INTL FALLS     CLOUDY    21   2  43 SW9       30.12F WCI  11
6HR MIN TEMP:  21; 6HR MAX TEMP:  26;

WASKISH        CLOUDY    21  10  63 S10       30.12S WCI  10
BIG FORK       PTCLDY    21   3  45 S18G24    30.15S WCI   6
LONGVILLE      CLOUDY    19   7  58 S16       30.19S WCI   5
GRAND RAPIDS   CLOUDY    19   3  49 S12       30.18R WCI   7
CRANE LAKE     MOCLDY    19  -2  38 S8G20     30.18F WCI   9
ORR            MOCLDY    19  -2  38 S10G18    30.14S WCI   8
COOK           MOCLDY    19   0  42 S13       30.18S WCI   7
WALKER         CLOUDY    20   8  58 S13       30.15S WCI   7
$$
MNZ012-019>021-037-010100-
   Northeast Minnesota

CITY           SKY/WX    TMP DP  RH WIND       PRES   REMARKS
DULUTH         PTCLDY    18   2  49 S10       30.22F WCI   6
6HR MIN TEMP:  17; 6HR MAX TEMP:  21;

HIBBING        CLOUDY    20  -2  38 S8G17     30.19F WCI  10
EVELETH        PTCLDY    19   1  45 S12G18    30.20F WCI   7
DULUTH HARBOR  PTCLDY    21   3  45 S16       30.31S WCI   7
TWO HARBORS    CLEAR     21   5  49 SW7       30.24S WCI  13
SILVER BAY     PTCLDY    19   3  49 S10       30.24S WCI   8
GRAND MARAIS     N/A     23  10  57 SW24      30.29F WCI   7
G MARAIS ARPRT CLEAR     12   3  67 S8        30.20F WCI   1
$$
MNZ029>031-032-039>041-046>048-054>057-064-010100-
   West Central Minnesota

CITY           SKY/WX    TMP DP  RH WIND       PRES   REMARKS
FERGUS FALLS   LGT SNOW  21  14  73 S15       30.22S WCI   8
WHEATON        PTCLDY    21  14  73 SE13      30.20F WCI   9
MORRIS         CLOUDY    21  12  68 S15G22    30.20S WCI   8
ALEXANDRIA     LGT SNOW  19  12  74 S15       30.20F WCI   5
ELBOW LAKE     FLURRIES  20  14  78 S20G25    30.19S WCI   5
WADENA         LGT SNOW  18  12  79 S9        30.19S WCI   6
APPLETON       FLURRIES  21  14  73 S9        30.23S WCI  11
BENSON         CLOUDY    21  12  68 S14       30.23F WCI   8
ORTONVILLE     CLOUDY    21  12  68 S10       30.20S WCI  10
MADISON        PTCLDY    23  16  74 S10       30.22S WCI  12
WILLMAR        MOCLDY    21  12  68 S3        30.27F HAZE
$$
MNZ033>034-036-042>043-049>051-058-059-010100-
   Central Minnesota

CITY           SKY/WX    TMP DP  RH WIND       PRES   REMARKS
ST CLOUD       CLOUDY    18   6  59 S20       30.28F WCI   2
6HR MIN TEMP:  18; 6HR MAX TEMP:  21;

SAUK CENTRE    CLOUDY    18  11  73 S16       30.24R WCI   4
PAYNESVILLE    CLOUDY    16   9  73 SE10G18   30.26F WCI   3
AITKIN         MOCLDY    19   7  58 S16       30.22S WCI   5
PINE RIVER     CLOUDY    18  10  73 S12G17    30.23R WCI   5
BRAINERD       CLOUDY    17   8  67 S15       30.23S WCI   2
STAPLES        LGT SNOW  18  12  79 S12G23    30.21R WCI   5
LONG PRAIRIE   FLURRIES  18  12  79 S15       30.23R WCI   3
LITTLE FALLS   CLOUDY    19   9  63 S12G17    30.26S WCI   7
LITCHFIELD     CLOUDY    18  12  79 SE7       30.29F WCI   8
MAPLE LAKE     CLOUDY    19   9  66 S9G18     30.32F WCI   8
$$
MNZ037-044-045-052-053-010100-
   East Central Minnesota

CITY           SKY/WX    TMP DP  RH WIND       PRES   REMARKS
PRINCETON      CLOUDY    19   7  58 S14       30.31R WCI   6
MORA           PTCLDY    18   3  53 S8        30.31S WCI   7
RUSH CITY      MOCLDY    16   4  60 S10G18    30.32F WCI   3
MOOSE LAKE     CLOUDY    19   3  49 S9        30.25F WCI   9
HINCKLEY       MOCLDY    19   5  53 S13       30.30S WCI   7
CLOQUET        CLOUDY    19   0  42 S10       30.23F WCI   8
MCGREGOR       CLOUDY    19   5  53 S13       30.24S WCI   7
$$
MNZ071>073-080-081-089-090-097-098-010100-
   Southwest Minnesota

CITY           SKY/WX    TMP DP  RH WIND       PRES   REMARKS
MONTEVIDEO     MOCLDY    21  14  73 SW9       30.25F WCI  11
GRANITE FALLS  CLOUDY    21  15  78 SE13      30.27F WCI   9
CANBY          CLEAR     22  15  74 S8        30.22F WCI  13
MARSHALL       PTCLDY    21  12  68 S12G21    30.25F WCI   9
REDWOOD FALLS  CLOUDY    21  13  71 S12       30.28F WCI   9
OLIVIA         CLOUDY    19  12  73 S12G17    30.27F WCI   7
PIPESTONE      CLOUDY    21  16  79 S14       30.19S WCI   8
WINDOM         CLOUDY    19  12  73 S7        30.27F WCI  10
WORTHINGTON    CLEAR     28  10  47 S14       30.27S WCI  17
JACKSON        FLURRIES  21  12  68 S13G18    30.29S WCI   9
TRACY          FLURRIES  22  15  75 S12       30.24F WCI  10
SLAYTON        CLOUDY    19  13  77 S14       30.23S WCI   6
$$
MNZ065>067-074>077-082>085-091>093-010100-
   South Central Minnesota

CITY           SKY/WX    TMP DP  RH WIND       PRES   REMARKS
MANKATO        MOCLDY    16   3  57 S9        30.35S WCI   4
NEW ULM        CLOUDY    19  10  68 S13       30.32S WCI   7
ST JAMES       FLURRIES  19  12  73 S12       30.33S WCI   7
FAIRMONT       CLOUDY    18  10  73 S14       30.31R WCI   4
GLENCOE        CLOUDY    18  11  73 SE7       30.32F WCI   9
FARIBAULT      MOCLDY    14   3  62 S12       30.36F WCI   0
OWATONNA       PTCLDY    12   1  62 S12G18    30.35F WCI  -2
ALBERT LEA     CLOUDY    12   5  73 S12       30.35F WCI  -2
$$
MNZ078>079-086>088-094>096-010100-
   Southeast Minnesota

CITY           SKY/WX    TMP DP  RH WIND       PRES   REMARKS
ROCHESTER      CLOUDY    11   1  64 S14       30.37F WCI  -5
6HR MIN TEMP:   8; 6HR MAX TEMP:  11;

RED WING       CLOUDY    16   1  53 S8        30.41F WCI   5
STANTON        CLOUDY    15   4  62 S13       30.36F WCI   1
DODGE CENTER   CLOUDY    10   3  72 S14       30.36F WCI  -5
WINONA         CLOUDY    18   1  49 S8        30.45F WCI   7
AUSTIN         CLOUDY    12   3  67 S7        30.37F WCI   2
PRESTON        CLOUDY    11   1  62 S7        30.39F WCI   1
$$
ABBREVIATIONS USED IN REMARKS
   TC - TEMPERATURES IN CELSIUS
  WCI - WIND CHILL INDEX
   HX - HEAT INDEX
  VSB - VISIBILITY
$$



USA.gov is the U.S. government's official web portal to all federal, state and local government web resources and services.